Stündliche Wetter Labé

Heute, 10 Mai, Montag

Zeit Temperatur Niederschläge Wind Luftdruck Luftfeuchtigkeit
00:00 +24°C° 0 mm 1 m/S 673 mmHg 61%
01:00 +23°C° 0 mm 1 m/S 673 mmHg 65%
02:00 +23°C° 0 mm 1 m/S 672 mmHg 68%
03:00 +23°C° 0 mm 1 m/S 673 mmHg 69%
04:00 +22°C° 0 mm 1 m/S 673 mmHg 70%
05:00 +22°C° 0 mm 1 m/S 673 mmHg 71%
06:00 +24°C° 0 mm 1 m/S 674 mmHg 60%
07:00 +26°C° 0 mm 1 m/S 674 mmHg 49%
08:00 +29°C° 0 mm 1 m/S 675 mmHg 38%
09:00 +31°C° 0 mm 1 m/S 675 mmHg 31%
10:00 +34°C° 0 mm 2 m/S 675 mmHg 24%
11:00 +36°C° 0 mm 3 m/S 675 mmHg 17%
12:00 +37°C° 0 mm 3 m/S 674 mmHg 16%
13:00 +38°C° 0 mm 3 m/S 674 mmHg 14%
14:00 +39°C° 0 mm 3 m/S 673 mmHg 13%
15:00 +38°C° 0 mm 3 m/S 673 mmHg 14%
16:00 +36°C° 0 mm 2 m/S 673 mmHg 16%
17:00 +34°C° 0 mm 1 m/S 673 mmHg 18%
18:00 +32°C° 0 mm 1 m/S 673 mmHg 20%
19:00 +31°C° 0 mm 1 m/S 673 mmHg 22%
20:00 +27°C° 0 mm 0 m/S 674 mmHg 24%
21:00 +29°C° 0 mm 1 m/S 674 mmHg 26%
22:00 +29°C° 0 mm 1 m/S 674 mmHg 29%
23:00 +28°C° 0 mm 1 m/S 674 mmHg 32%

Morgen, 11 Mai, Dienstag

Zeit Temperatur Niederschläge Wind Luftdruck Luftfeuchtigkeit
00:00 +28°C° 0 mm 1 m/S 673 mmHg 36%
01:00 +27°C° 0 mm 1 m/S 673 mmHg 41%
02:00 +26°C° 0 mm 1 m/S 673 mmHg 46%
03:00 +25°C° 0 mm 1 m/S 673 mmHg 51%
04:00 +24°C° 0 mm 1 m/S 673 mmHg 57%
05:00 +23°C° 0 mm 1 m/S 673 mmHg 63%
06:00 +25°C° 0 mm 1 m/S 674 mmHg 59%
07:00 +26°C° 0 mm 1 m/S 674 mmHg 56%
08:00 +27°C° 0 mm 1 m/S 675 mmHg 53%
09:00 +30°C° 0 mm 1 m/S 675 mmHg 43%
10:00 +33°C° 0 mm 1 m/S 676 mmHg 34%
11:00 +36°C° 0 mm 1 m/S 676 mmHg 25%
12:00 +34°C° 0.2 mm 1 m/S 675 mmHg 33%
13:00 +31°C° 0.2 mm 1 m/S 674 mmHg 41%
14:00 +29°C° 0.2 mm 1 m/S 673 mmHg 50%
15:00 +27°C° 1.2 mm 1 m/S 673 mmHg 58%
16:00 +25°C° 1.2 mm 2 m/S 673 mmHg 66%
17:00 +24°C° 1.2 mm 2 m/S 673 mmHg 74%
18:00 +24°C° 0.1 mm 1 m/S 673 mmHg 73%
19:00 +24°C° 0.1 mm 1 m/S 673 mmHg 71%
20:00 +24°C° 0.1 mm 1 m/S 674 mmHg 70%
21:00 +24°C° 0.1 mm 1 m/S 674 mmHg 70%
22:00 +23°C° 0.1 mm 1 m/S 674 mmHg 70%
23:00 +23°C° 0.1 mm 1 m/S 674 mmHg 70%

übermorgen, 12 Mai, Mittwoch

Zeit Temperatur Niederschläge Wind Luftdruck Luftfeuchtigkeit
00:00 +23°C° 0.1 mm 1 m/S 673 mmHg 71%
01:00 +23°C° 0.1 mm 1 m/S 673 mmHg 73%
02:00 +23°C° 0.1 mm 1 m/S 673 mmHg 74%
03:00 +23°C° 0.1 mm 1 m/S 673 mmHg 74%
04:00 +23°C° 0.1 mm 1 m/S 673 mmHg 74%
05:00 +21°C° 0.1 mm 0 m/S 673 mmHg 74%
06:00 +24°C° 0 mm 1 m/S 674 mmHg 69%
07:00 +25°C° 0 mm 1 m/S 675 mmHg 65%
08:00 +27°C° 0 mm 1 m/S 675 mmHg 60%
09:00 +28°C° 0 mm 1 m/S 675 mmHg 54%
10:00 +30°C° 0 mm 1 m/S 675 mmHg 47%
11:00 +31°C° 0 mm 1 m/S 676 mmHg 41%
12:00 +31°C° 0.5 mm 2 m/S 675 mmHg 45%
13:00 +30°C° 0.5 mm 2 m/S 674 mmHg 50%
14:00 +29°C° 0.5 mm 2 m/S 673 mmHg 54%
15:00 +28°C° 0.4 mm 2 m/S 673 mmHg 57%
16:00 +27°C° 0.4 mm 2 m/S 673 mmHg 61%
17:00 +26°C° 0.4 mm 2 m/S 673 mmHg 64%
18:00 +25°C° 0.1 mm 1 m/S 673 mmHg 69%
19:00 +24°C° 0.1 mm 1 m/S 673 mmHg 74%
20:00 +23°C° 0.1 mm 1 m/S 673 mmHg 80%
21:00 +23°C° 0 mm 1 m/S 674 mmHg 79%
22:00 +23°C° 0 mm 1 m/S 674 mmHg 78%
23:00 +21°C° 0 mm 0 m/S 674 mmHg 78%

13 Mai, Donnerstag

Zeit Temperatur Niederschläge Wind Luftdruck Luftfeuchtigkeit
00:00 +21°C° 0.2 mm 0 m/S 674 mmHg 78%
01:00 +21°C° 0.2 mm 0 m/S 674 mmHg 79%
02:00 +20°C° 0.2 mm 0 m/S 673 mmHg 80%
03:00 +20°C° 0 mm 0 m/S 673 mmHg 79%
04:00 +20°C° 0 mm 0 m/S 673 mmHg 78%
05:00 +21°C° 0 mm 0 m/S 673 mmHg 77%
06:00 +22°C° 0 mm 0 m/S 673 mmHg 72%
07:00 +23°C° 0 mm 0 m/S 674 mmHg 67%
08:00 +24°C° 0 mm 0 m/S 674 mmHg 62%
09:00 +29°C° 0 mm 1 m/S 675 mmHg 52%
10:00 +32°C° 0 mm 1 m/S 675 mmHg 41%
11:00 +35°C° 0 mm 2 m/S 675 mmHg 30%
12:00 +34°C° 0.1 mm 2 m/S 674 mmHg 32%
13:00 +34°C° 0.1 mm 2 m/S 674 mmHg 35%
14:00 +33°C° 0.1 mm 3 m/S 673 mmHg 37%
15:00 +29°C° 1.4 mm 2 m/S 672 mmHg 48%
16:00 +27°C° 1.4 mm 1 m/S 672 mmHg 60%
17:00 +25°C° 1.4 mm 1 m/S 672 mmHg 71%
18:00 +24°C° 0 mm 1 m/S 672 mmHg 73%
19:00 +24°C° 0 mm 1 m/S 672 mmHg 76%
20:00 +24°C° 0 mm 1 m/S 673 mmHg 78%
21:00 +23°C° 0 mm 1 m/S 673 mmHg 80%
22:00 +23°C° 0 mm 2 m/S 673 mmHg 82%
23:00 +23°C° 0 mm 2 m/S 673 mmHg 85%

14 Mai, Freitag

Zeit Temperatur Niederschläge Wind Luftdruck Luftfeuchtigkeit
00:00 +21°C° 0 mm 2 m/S 672 mmHg 85%
01:00 +22°C° 0 mm 1 m/S 671 mmHg 86%
02:00 +22°C° 0 mm 1 m/S 671 mmHg 86%
03:00 +22°C° 0 mm 1 m/S 671 mmHg 86%
04:00 +21°C° 0 mm 1 m/S 671 mmHg 87%
05:00 +21°C° 0 mm 1 m/S 672 mmHg 87%
06:00 +23°C° 0 mm 1 m/S 672 mmHg 79%
07:00 +24°C° 0 mm 2 m/S 673 mmHg 71%
08:00 +26°C° 0 mm 2 m/S 674 mmHg 63%
09:00 +28°C° 0 mm 2 m/S 674 mmHg 54%
10:00 +31°C° 0 mm 2 m/S 674 mmHg 45%
11:00 +34°C° 0 mm 3 m/S 675 mmHg 36%
12:00 +35°C° 0 mm 3 m/S 674 mmHg 32%
13:00 +36°C° 0 mm 3 m/S 673 mmHg 27%
14:00 +37°C° 0 mm 3 m/S 673 mmHg 23%
15:00 +36°C° 0 mm 3 m/S 672 mmHg 25%
16:00 +35°C° 0 mm 3 m/S 672 mmHg 26%
17:00 +35°C° 0 mm 3 m/S 672 mmHg 28%
18:00 +31°C° 0 mm 2 m/S 672 mmHg 35%
19:00 +29°C° 0 mm 2 m/S 672 mmHg 43%
20:00 +27°C° 0 mm 1 m/S 672 mmHg 50%
21:00 +27°C° 0 mm 2 m/S 672 mmHg 53%
22:00 +26°C° 0 mm 2 m/S 672 mmHg 56%
23:00 +25°C° 0 mm 2 m/S 672 mmHg 60%

15 Mai, Samstag

Zeit Temperatur Niederschläge Wind Luftdruck Luftfeuchtigkeit
00:00 +24°C° 0 mm 2 m/S 671 mmHg 66%
01:00 +23°C° 0 mm 1 m/S 671 mmHg 72%
02:00 +23°C° 0 mm 1 m/S 671 mmHg 78%
03:00 +22°C° 0 mm 1 m/S 671 mmHg 81%
04:00 +22°C° 0 mm 1 m/S 671 mmHg 84%
05:00 +21°C° 0 mm 1 m/S 671 mmHg 87%
06:00 +24°C° 0 mm 1 m/S 672 mmHg 76%
07:00 +26°C° 0 mm 2 m/S 673 mmHg 66%
08:00 +28°C° 0 mm 2 m/S 673 mmHg 55%
09:00 +30°C° 0 mm 2 m/S 674 mmHg 47%
10:00 +32°C° 0 mm 2 m/S 674 mmHg 39%
11:00 +36°C° 0 mm 2 m/S 674 mmHg 31%
12:00 +36°C° 0 mm 2 m/S 674 mmHg 29%
13:00 +36°C° 0 mm 2 m/S 673 mmHg 27%
14:00 +36°C° 0 mm 2 m/S 672 mmHg 26%
15:00 +34°C° 0.3 mm 2 m/S 672 mmHg 37%
16:00 +30°C° 0.3 mm 2 m/S 672 mmHg 48%
17:00 +28°C° 0.3 mm 2 m/S 672 mmHg 59%
18:00 +27°C° 0.7 mm 2 m/S 672 mmHg 65%
19:00 +26°C° 0.7 mm 2 m/S 672 mmHg 70%
20:00 +25°C° 0.7 mm 1 m/S 673 mmHg 76%
21:00 +24°C° 0.1 mm 2 m/S 673 mmHg 78%
22:00 +24°C° 0.1 mm 2 m/S 673 mmHg 79%
23:00 +23°C° 0.1 mm 2 m/S 674 mmHg 81%
Mehr zeigen

Wir brauchen deine Erlaubnis

Meteoprog und unser Service Anbieter werden persönliche Daten aufbewahren, so wie Cookies, Geräte Bezeichnung oder ähnliche Technologien von deinem Gerät und Prozess, so wie Persönliche Daten Inhalte und Werbungen, genauso wie social Media und den Verkehr zu analysieren.

  • Aufbewahrung und/oder Zugang zu deiner Geräte Informationen.

    Cookies, Geräte Bezeichnung oder andere Informationen, können aufbewahrt oder Zugang zu deinem Gerät erhalten, für den Grund, der oben angegeben wird.

  • Personalisierte Werbung und Inhalte, Messungen, Einblick in das Publikum und Produkt Entwicklung.

    Werbungen und Inhalte können personalisiert werden, basierend auf ein Profil. Mehr Daten können besser personalisierte Werbungen und Inhalte hinzufügen. Werbung und Inhalte können gezeigt und gemessen werden. Einblicke über das Publikum, welche die Werbung gesehen haben und den Inhalt, können abgeleitet werden. So wie Daten können genutzt werden, um es zu verbessern oder die Benutzer Erfahrung zu verbessern das System und die Software.

Wenn du “Ich stimme zu” klickst, erlaubst du uns, die Cookies zu benutzen die Geräte Bezeichnung, den Web oder ähnliche Technologien zu benutzen. Deine Settings, können in deinem Gerät bei deinem Browser geändert werden.

Für den bestimmten Zweck, berechtigten Interessen beruhen darauf, mehr als auf den Inhalt. Du kannst mehr darüber in unseren Privaten und Cookie Politik lesen.